Regional Weather Roundup
Issued by NWS

Home | Current Version | Previous Version | Graphics & Text | Print | Product List | Glossary On
Versions: 1 2 3 4 5 6 7 8 9 10 11 12 13 14 15 16 17 18 19 20 21 22 23 24 25 26 27 28 29 30 31 32 33 34 35 36 37 38 39 40 41 42 43 44 45 46 47 48 49 50
000
ASUS43 KOAX 260402
RWRNE

WEATHER ROUNDUP FOR NEBRASKA
NATIONAL WEATHER SERVICE OMAHA NE
1100 PM CDT SAT OCT 25 2014

NOTES: SATELLITE DATA IS BEING USED TO AUGMENT CLOUD COVER ABOVE
       12000 FEET.
       "FAIR" INDICATES FEW OR NO CLOUDS BELOW 12,000 FEET WITH NO
       SIGNIFICANT WEATHER AND/OR OBSTRUCTIONS TO VISIBILITY.

  * THESE STATIONS DO NOT REPORT WEATHER SUCH AS RAIN...SNOW OR FOG.

NEZ001>004-019>022-054>056-260500-
NEBRASKA PANHANDLE

CITY           SKY/WX    TMP DP  RH WIND       PRES   REMARKS
SCOTTSBLUFF    CLEAR     50  38  63 E9        29.95F
ALLIANCE       CLEAR     44  34  67 SE8       29.95F
CHADRON        LGT RAIN  65  36  34 S13       29.85F
KIMBALL        CLEAR     50  34  55 S9        29.98F
SIDNEY         CLEAR     50  35  56 SE9       29.99F
$$

NEZ057>060-069>072-079>082-260500-
SOUTHWEST NEBRASKA

CITY           SKY/WX    TMP DP  RH WIND       PRES   REMARKS
NORTH PLATTE   CLEAR     50  43  77 E8        29.97F
IMPERIAL       CLEAR     56  49  77 E9        29.95F
LEXINGTON      CLEAR     57  45  65 E9        29.97F
MCCOOK         CLEAR     60  53  77 E9        29.93F
OGALLALA       CLEAR     54  47  76 E6        29.96F
$$

NEZ005>010-023>029-035>040-094-260500-
NORTH CENTRAL NEBRASKA

CITY           SKY/WX    TMP DP  RH WIND       PRES   REMARKS
VALENTINE      CLEAR     51  35  54 E9        29.96F
AINSWORTH      CLEAR     46  36  69 E7        29.98F
BROKEN BOW     CLEAR     55  42  61 SE5       29.99F
O`NEILL        CLEAR     53  37  52 E9        30.01F
ORD            CLEAR     47  39  74 CALM      29.99F
THEDFORD       CLEAR     54  42  63 SE5       29.98F
$$

NEZ041-046>049-061>064-073>077-083>087-260500-
SOUTH CENTRAL NEBRASKA

CITY           SKY/WX    TMP DP  RH WIND       PRES   REMARKS
GRAND ISLAND   CLEAR     56  44  64 E7        29.99F
AURORA         CLEAR     55  42  61 E8        29.99S
HASTINGS       CLEAR     60  42  51 E12       29.97F
HEBRON         CLEAR     56  46  68 CALM      29.97F
HOLDREGE       CLEAR     57  46  66 E9        29.96F
KEARNEY *      CLEAR     52  43  71 NE7       29.98F
YORK           CLEAR     55  45  67 E9        29.99F
$$

NEZ011>018-030>034-042>045-260500-
NORTHEAST NEBRASKA

CITY           SKY/WX    TMP DP  RH WIND       PRES   REMARKS
NORFOLK        CLEAR     51  38  60 CALM      30.02F
ALBION         CLEAR     51  37  59 CALM      30.01F
BLAIR          CLEAR     57  39  50 E10       30.03S HAZE
COLUMBUS *     CLEAR     52  39  62 E6        30.02F
FREMONT        CLEAR     56  39  52 E5        30.02F
TEKAMAH        CLEAR     50  39  66 N3        30.04S
WAYNE          CLEAR     45  37  75 CALM      30.04F
$$

NEZ050>053-065>068-078-088>093-260500-
SOUTHEAST NEBRASKA

CITY           SKY/WX    TMP DP  RH WIND       PRES   REMARKS
LINCOLN        CLEAR     58  43  57 E6        30.01F
OMAHA EPPLEY   CLEAR     60  38  43 E7        30.03F
BEATRICE       CLEAR     58  46  63 E5        29.99F
FALLS CITY     CLEAR     59  47  64 E7        30.00S
NEBRASKA CITY  CLEAR     59  39  47 E8        30.01F
PLATTSMOUTH    CLEAR     57  40  54 E7        30.02F
$$

NEZ044-045-051>053-067-260500-
OMAHA AREA

CITY           SKY/WX    TMP DP  RH WIND       PRES   REMARKS
OMAHA EPPLEY   CLEAR     60  38  43 E7        30.03F
BLAIR          CLEAR     57  39  50 E10       30.03S HAZE
FREMONT        CLEAR     56  39  52 E5        30.02F
OFFUTT AFB     CLEAR     55  46  72 NE7       30.01F
PLATTSMOUTH    CLEAR     57  40  54 E7        30.02F
WAHOO          FAIR      54  42  65 E5        30.01F
$$



USA.gov is the U.S. government's official web portal to all federal, state and local government web resources and services.